DELTA 1 DEB, 42085

Orbit data source: Space-Track

DELTA 1 DEB, 42085 is space debris in SSO originally from a launch on Sun, 15 Dec 1968 UTC launched from the Air Force Western Test Range (AFWTR). Debris objects in space refer to the collection of defunct objects orbiting the Earth. Examples of debris include non-operational satellites, rocket bodies, and fragments generated from explosions, collisions, or faulty payload assembly.

Loading next visibility...
Identifier
42085, 1968-114M
Orbit
SSO
Country
Flag of USUS
Related business
Manufacturer
Aerojet
Mission
Spacecraft
Bus & Motor
Unknown
Mass
Unknown
Launch date (UTC)
1968-12-15 (57 years ago)
Launch vehicle
Unknown
Launch site
Air Force Western Test Range (AFWTR)
Object type
Payload
Rocket body
Debris
Shape & HBR
Unknown shape, 0.1 m
Radar Cross Section
Small (<0.1 m²)

Expand to show TLE details & history
Last TLE update: 6 hours ago

TLE from 6 hours ago
0 DELTA 1 DEB
1 42085U 68114M   25349.96014733  .00000309  00000-0  14220-2 0  9998
2 42085 100.9229  50.9870 0108865  31.7595 143.8269 12.84380396565622
Epoch: 2025-12-15T23:02Z
TLE epoch observation values (Epoch: 2025-12-15T23:02:36.729Z)
Latitude
3.53187°
Longitude
161.16185°
Altitude
1,394.183 km
Speed
7.131 km/s
True Right ascension
15h 26m 39s
True Declination
3° 30' 45"
Sunlit
Object was in daylight at epoch
Visualization orbit readout
Latitude
Unknown
Longitude
Unknown
Altitude
Unknown
Speed
Unknown
Apparent Right ascension
Unknown
Apparent Declination
Unknown
Sunlit
N/A
Visualization observer readout
Local Sidereal Time
03:26:40
Azimuth
Unknown
Elevation
Unknown
Doppler factor
Unknown
Orbital elements
Apogee altitude
1,405.183 km
Perigee altitude
1,237.541 km
Semi-major axis
7,699.499 km
Eccentricity
0.01089
Inclination
100.9229°
RAAN
50.987°
Arg. of periapsis
31.7595°
True anomaly
144.55518°
Mean anomaly
143.8269°
Eccentric anomaly
144.19184°
Mean motion
3.21255 °/min
Orbital period
112.06 mins
BSTAR
0.001422
Loading maneuver chart data...
Computing Atmospheric mass density...
Loading historical data...
Loading historical data...
Loading historical data...
Loading historical data...
Loading historical data...
Loading historical data...
Loading historical data...

Documentation

Showing up to 5 results
|